Starlink 32107

operational
NORAD ID: 59694 Int'l Des: 2024-086 Owner: SPXS Country: US Constellation: starlink
LEOCIRCULAR

Über Starlink 32107

Beschreibung wird geladen...

Live-Position

3D-Globus wird geladen...

Nächste Überflüge

Höhenverlauf

Altitude vs Time

uPlot chart will show altitude changes over time

Zweizeiliger Elementsatz

1 59694U 24086N 26034.65252910 -.00000071 00000-0 69245-5 0 9998
2 59694 43.0033 252.3729 0001068 263.5536 96.5194 15.27579914 98903
Epoch: 3. Feb. 2026 • Age: 17 hours

Aktueller Status

Höhe 488.0 km
Geschwindigkeit 7.62 km/s
Subsatellitenpunkt -22.79°S, 163.75°W
Startdatum 8. Mai 2024
Alter 1.7 years
Typ internet

Technische Details

Klassifizierung Payload
Masse 730.00 kg
Trockenmasse 700.00 kg
Gesamtmasse 730.00 kg
Länge 0.30 m
Durchmesser 4.10 m
Spannweite 29.00 m
Form Box + pan
Hersteller SPXS
Bus-Typ Starlink V2M
Phasenstatus In Orbit
Besitzer/Staat SPXS/US

Große Konstellationen

Loading constellations...